Location: Lindau-Bodensee
(47.5545°N, 9.7016°E)
Time: 06:27:22
(UTC+01:00)

ISS - Visible Passes

Search period start: 14 December 2025 00:00
Search period end: 24 December 2025 00:00
Orbit: 416 x 420 km, 51.6° (Epoch: 13 December)

Date Brightness Start Highest point End Pass type
(mag) Time Alt. Az. Time Alt. Az. Time Alt. Az.
14 Dec -1.5 06:26:01 10° SSW 06:28:52 26° SE 06:31:43 10° E visible
15 Dec -0.9 05:38:47 10° S 05:41:01 17° SE 05:43:17 10° E visible
15 Dec -3.7 07:14:00 10° WSW 07:17:23 85° SSE 07:20:47 10° ENE visible
16 Dec -0.3 04:53:41 10° SE 04:53:41 10° SE 04:53:58 10° ESE visible
16 Dec -3.2 06:26:40 14° SW 06:29:22 58° SSE 06:32:42 10° ENE visible
17 Dec -2.5 05:41:13 37° SSE 05:41:21 38° SE 05:44:31 10° ENE visible
17 Dec -3.6 07:14:44 10° W 07:18:04 55° NNW 07:21:25 10° ENE visible
18 Dec -0.5 04:55:32 14° E 04:55:32 14° E 04:56:11 10° E visible
18 Dec -3.8 06:28:29 32° W 06:29:55 72° NNW 06:33:18 10° ENE visible
19 Dec -2.9 05:42:35 48° ENE 05:42:35 48° ENE 05:45:09 10° ENE visible
19 Dec -3.1 07:15:32 10° WNW 07:18:44 41° N 07:21:58 10° ENE visible
20 Dec -0.4 04:56:34 13° ENE 04:56:34 13° ENE 04:56:56 10° ENE visible
20 Dec -3.3 06:29:29 34° WNW 06:30:28 46° NNW 06:33:45 10° ENE visible
21 Dec -2.4 05:43:21 35° NE 05:43:21 35° NE 05:45:31 10° ENE visible
21 Dec -3.0 07:16:16 11° WNW 07:19:20 40° N 07:22:32 10° ENE visible
22 Dec -0.4 04:57:07 11° ENE 04:57:07 11° ENE 04:57:17 10° ENE visible
22 Dec -3.0 06:30:02 31° NW 06:30:58 39° N 06:34:11 10° ENE visible
23 Dec -2.2 05:43:44 30° NE 05:43:44 30° NE 05:45:50 10° ENE visible
23 Dec -3.3 07:16:38 11° WNW 07:19:44 49° NNE 07:23:02 10° E visible
